Downstream station:
SHEF ID: HAHO2 Gaines Creek on Hwy 1 SW of Hart
STATION TYPE:
PRECIP STAGE RIV-FLOW VOLTAGE BAT-LOAD
in ft cfs volt volt
Ccp-Rev Ccp-Rev Ccp-Rev Ccp-Rev Ccp-Rev
(US/Central)
03/06 00:00 0.00 8.26 44 12.01 12.25
03/06 01:00 0.00 8.26 44 11.93 12.25
03/06 02:00 0.00 8.25 43 11.93 12.25
03/06 03:00 0.00 8.25 43 12.01 12.25
03/06 04:00 0.00 8.25 43 12.09 12.25
03/06 05:00 0.00 8.24 42 12.09 12.25
03/06 06:00 0.00 8.24 42 12.09 12.17
03/06 07:00 0.00 8.24 42 12.09 12.17
03/06 08:00 0.00 8.24 42 11.93 12.17
03/06 09:00 0.00 8.24 42 12.25 12.25
03/06 10:00 0.00 8.24 42 12.49 12.49
03/06 11:00 0.00 8.24 42 12.65 12.65
03/06 12:00 0.00 8.23 42 13.76 12.57
03/06 13:00 0.01 8.23 42 13.44 12.49
03/06 14:00 0.01 8.23 42 13.37 12.41
03/06 15:00 0.01 8.23 42 13.37 12.41
03/06 16:00 0.00 8.23 42 12.81 12.41
03/06 17:00 0.04 8.23 42 13.37 12.41
03/06 18:00 0.02 8.23 42 13.37 12.41
03/06 19:00 0.00 8.23 42 12.33 12.33
03/06 20:00 0.06 8.24 42 11.93 12.33
03/06 21:00 0.02 8.23 42 12.25 12.25
03/06 22:00 0.00 8.23 42 12.25 12.25
03/06 23:00 0.00 8.23 42 12.25 12.25